Wind_Speed
2 5 4 3 3 5 2 5 3 3 4 5 8 5 8 12 2 2 16 15 19 19 19 21 23 25 29 32 29 27 28 29 32 29 27 23 21 21 19 18 16 16 16 14 13 15 14 15 16
2 0 5 2 5 3 4 4 5 4 12 13 13 9 5 4 5 17 21 17 18 20 22 21 25 27 29 28 29 28 29 30 30 28 25 23 20 21 21 19 16 15 15 14 13 13 13 16 18
3 4 4 4 3 2 1 2 4 4 4 3 6 9 4 4 14 22 15 21 21 21 22 22 25 26 25 25 26 27 28 28 28 26 23 21 20 20 19 18 16 14 14 13 10 12 15 17 17
0 1 4 5 3 2 2 2 5 3 8 10 9 7 6 2 11 12 23 21 23 24 23 24 24 25 23 23 24 24 25 27 27 23 20 20 18 15 14 14 14 12 11 12 12 13 16 18 15
2 1 4 3 3 4 3 3 6 6 4 10 6 5 9 3 8 23 24 26 28 23 20 25 27 26 24 22 21 21 23 25 24 22 19 17 14 10 10 10 10 11 10 11 13 14 14 13 12
1 3 5 3 4 5 0 8 4 9 8 9 12 7 3 5 17 22 23 22 20 19 20 23 27 27 26 23 21 20 21 21 21 20 16 12 7 7 6 7 8 8 9 10 11 13 13 13 10
5 3 0 1 3 4 2 11 6 7 4 3 11 4 7 15 21 22 22 23 22 24 22 21 24 27 25 23 21 17 16 16 17 16 14 11 8 5 5 5 7 8 9 8 10 12 12 11 9
4 3 4 3 1 3 6 7 13 10 3 13 7 6 7 23 24 23 23 23 22 23 23 22 22 23 24 23 23 22 17 14 15 16 14 14 9 6 4 4 6 6 7 7 9 11 12 11 9
3 4 1 4 1 4 9 4 8 10 11 6 1 14 25 30 27 27 25 24 22 20 21 23 23 23 25 29 26 23 18 16 16 15 14 11 7 6 6 4 4 4 5 5 8 11 14 12 10
4 3 5 6 3 4 8 9 16 8 12 2 11 20 27 32 30 30 29 26 25 26 22 26 25 26 27 27 24 24 23 16 18 18 15 10 8 8 7 6 4 3 3 4 7 10 14 16 13
3 4 2 5 11 7 9 7 10 13 4 11 26 32 33 33 31 29 29 26 25 23 21 21 23 22 23 25 23 21 21 22 19 15 14 12 10 10 10 8 7 5 4 4 6 10 12 16 16
1 12 11 8 4 13 10 17 8 17 2 21 28 34 35 34 31 29 28 28 27 24 21 20 20 21 19 19 20 19 18 17 16 15 14 13 10 10 10 8 7 6 6 6 7 10 12 14 18
5 5 3 15 6 12 21 16 6 16 3 19 32 34 34 33 29 26 24 24 26 26 23 21 20 19 19 18 16 16 15 15 14 14 14 12 11 9 10 8 8 6 7 7 9 11 13 15 17
3 11 12 6 4 12 10 5 9 9 14 27 32 33 33 32 30 27 26 25 25 25 23 21 20 17 16 15 14 13 14 13 13 13 13 12 11 11 13 11 10 11 8 8 10 11 13 16 18
6 7 7 1 1 4 15 4 3 18 24 30 29 31 31 31 31 30 26 23 24 23 22 22 21 17 15 13 11 12 13 12 13 13 13 14 13 13 12 11 14 11 8 8 10 12 13 15 17
5 5 3 3 4 6 3 5 2 27 32 27 26 30 31 30 29 28 27 24 22 24 22 21 20 19 16 12 11 10 14 14 15 15 15 14 14 11 13 15 13 13 12 13 13 14 15 16 18
6 0 1 6 1 4 4 5 7 24 26 25 26 28 29 29 28 29 28 26 23 22 24 22 20 19 18 14 13 11 13 13 13 14 14 13 12 13 14 15 13 12 15 16 17 17 18 18 17
2 2 1 3 1 3 3 2 8 22 24 26 25 23 25 29 30 28 28 26 25 23 23 24 21 19 22 19 16 14 15 15 14 15 16 14 16 16 17 16 14 15 15 16 18 20 19 21 20
2 2 1 3 2 6 2 2 5 15 16 18 22 26 27 30 25 25 27 25 26 26 24 25 24 20 21 24 21 20 19 18 17 17 16 17 16 17 17 17 16 15 15 15 17 19 21 23 22
2 1 3 3 5 6 3 5 4 9 13 23 27 29 34 30 27 26 25 26 27 27 27 26 22 25 23 22 23 23 23 22 20 20 20 20 19 19 19 19 19 19 19 19 19 19 22 24 23
1 4 3 3 3 7 7 5 2 2 9 14 22 29 26 33 31 29 28 27 25 26 25 26 25 24 23 23 23 24 26 27 25 22 23 20 21 24 24 24 23 22 21 22 23 22 23 24 24
3 2 1 6 4 4 3 4 5 2 4 8 23 27 31 29 29 29 28 28 27 25 25 25 24 22 20 22 23 26 25 27 25 24 24 22 21 23 24 26 27 29 29 29 27 24 27 26 28
3 3 3 2 4 4 3 4 6 2 6 8 16 30 32 31 29 27 26 24 22 17 16 19 18 19 23 21 19 20 23 25 23 26 26 20 18 20 23 24 24 26 28 28 28 30 31 31 31
6 5 7 5 3 2 2 5 5 6 12 5 5 22 30 28 27 25 22 19 17 18 17 17 19 17 17 18 15 14 15 16 21 22 22 21 21 22 23 24 27 28 31 31 31 31 32 33 32
6 7 3 4 5 5 0 3 7 5 3 10 14 23 26 26 23 23 23 21 20 21 20 17 15 14 12 12 11 9 11 13 14 15 17 18 19 20 22 23 25 27 29 30 30 30 31 32 32
3 6 5 2 2 4 3 3 4 7 10 16 22 26 24 24 23 23 21 22 20 17 17 17 17 15 13 11 9 9 12 14 16 17 18 20 20 21 20 20 22 23 24 25 27 29 28 26 28
4 4 4 7 3 3 4 6 3 5 4 18 18 24 27 27 26 25 21 19 17 16 16 16 14 11 11 10 10 12 16 19 22 24 26 26 26 28 27 25 26 26 26 25 26 27 26 23 26
5 6 4 3 2 3 5 5 5 2 4 6 11 23 29 27 26 24 20 19 18 16 16 14 13 12 10 12 16 18 18 19 23 28 29 28 30 32 32 32 31 32 32 31 30 29 25 24 26
2 2 7 5 4 5 1 6 6 7 9 13 19 31 32 31 27 23 22 20 19 18 16 15 14 14 16 16 13 17 21 25 26 27 30 33 32 32 33 35 37 37 37 37 35 33 30 26 25
1 4 5 5 4 1 3 6 2 6 10 15 17 27 29 29 26 24 23 21 19 18 17 16 13 14 13 14 16 20 25 29 30 30 31 34 36 40 43 44 43 42 41 38 36 34 33 33 29
Wind_Direction
148 76 104 62 56 64 348 336 314 23 47 43 80 113 108 43 42 173 141 147 154 140 140 142 136 132 137 133 136 131 132 133 132 128 129 125 118 112 111 118 115 110 116 120 121 120 121 116 112
83 160 63 48 76 64 309 339 6 89 131 93 76 87 58 67 59 132 144 149 146 139 137 141 134 132 132 131 133 135 137 137 136 130 130 126 116 110 105 102 107 113 115 115 119 125 122 120 118
77 66 14 76 97 129 214 13 349 91 78 80 108 55 54 76 118 137 144 148 148 139 139 135 132 132 131 134 137 139 141 141 145 133 126 123 123 117 104 99 96 102 121 123 129 127 130 125 119
4 93 66 74 328 267 195 7 15 37 53 63 91 64 60 91 122 146 144 148 143 138 138 133 130 130 133 135 137 141 143 149 153 145 128 124 127 123 102 96 99 100 113 134 129 128 130 129 126
227 301 48 71 298 271 231 106 50 34 55 25 78 76 105 88 128 142 143 149 142 131 137 140 134 129 125 125 132 138 145 150 156 157 141 127 124 121 108 93 95 106 110 134 142 140 141 138 130
347 33 49 7 315 288 310 120 78 71 85 97 88 91 62 141 150 144 145 155 166 157 140 144 138 131 129 128 129 135 144 155 162 165 160 163 149 126 113 104 100 106 116 132 148 156 157 150 138
76 63 121 192 279 320 245 131 101 107 118 84 128 78 128 151 156 149 150 145 141 145 136 140 138 135 131 131 128 123 137 153 164 175 183 188 182 155 130 121 118 114 122 137 156 165 167 160 146
19 90 7 172 214 291 178 120 136 131 84 146 123 153 174 161 160 154 154 148 142 141 148 146 145 136 132 135 135 135 134 164 190 186 184 182 182 181 156 147 137 129 130 145 167 178 188 177 170
62 65 290 283 142 280 171 117 145 148 141 166 174 162 158 157 163 160 159 156 150 148 155 155 152 152 145 139 134 138 143 168 181 185 186 193 203 202 184 181 159 147 142 150 182 190 197 198 192
83 101 230 204 264 186 211 155 149 151 160 106 130 150 157 164 168 169 170 169 165 163 166 164 165 165 162 157 164 164 166 177 190 190 196 208 217 211 224 226 218 197 199 181 192 204 204 206 204
152 214 242 279 288 240 164 142 159 133 190 195 159 163 164 169 174 177 180 176 170 172 170 168 167 173 175 177 179 182 187 180 192 206 201 210 223 226 236 241 237 221 210 209 207 210 208 211 214
197 251 251 285 335 152 167 155 171 186 188 197 177 169 167 170 175 180 183 183 182 182 177 177 178 177 179 184 188 191 191 196 203 205 209 213 226 242 254 259 253 229 218 217 211 213 211 211 214
186 273 276 275 272 171 164 181 189 200 3 160 168 171 173 175 176 180 182 187 188 188 189 187 185 184 183 190 194 202 200 206 208 213 219 221 230 242 248 264 248 242 254 233 227 223 218 215 213
221 279 278 267 98 145 154 140 172 181 147 154 169 175 180 183 184 186 190 192 194 195 196 196 195 193 192 198 205 212 213 210 215 224 230 237 236 237 241 258 258 256 255 243 236 233 229 222 222
315 342 343 317 106 145 139 98 245 154 157 152 172 181 188 192 194 197 194 195 198 198 197 199 198 203 205 209 217 226 234 231 234 234 239 242 242 242 251 254 261 254 256 257 245 238 238 232 225
25 48 24 312 139 133 125 229 108 159 156 153 174 186 196 201 203 204 206 205 205 206 202 202 207 210 216 218 226 232 228 236 238 242 241 243 243 247 259 265 267 256 252 257 250 246 251 246 235
6 237 181 325 272 121 85 245 138 162 156 155 181 191 197 205 213 215 213 214 213 211 210 210 214 216 221 224 230 240 229 233 229 230 239 246 254 257 266 271 275 272 265 262 262 258 255 251 246
307 360 262 253 199 80 108 167 137 167 166 172 183 191 197 210 214 214 220 219 219 219 218 220 223 225 225 229 235 241 237 237 234 236 241 253 256 261 263 263 267 273 271 268 267 264 259 260 260
231 291 90 272 67 90 185 97 154 170 171 176 190 198 204 216 218 219 216 223 224 225 225 228 228 231 234 235 238 240 244 244 245 248 250 254 258 260 260 255 262 271 274 284 277 273 267 263 264
168 145 289 283 26 97 93 56 124 185 201 194 193 203 211 213 215 220 221 220 225 228 232 234 241 243 245 243 252 253 257 256 259 262 262 258 260 263 266 267 270 267 270 270 271 274 274 270 263
111 176 157 143 56 45 99 3 4 145 225 220 217 220 220 218 216 218 224 229 233 235 237 246 245 250 254 256 256 254 260 265 266 273 273 262 270 274 275 276 273 271 270 273 273 271 270 270 267
186 213 96 111 91 169 51 233 276 204 239 205 220 221 225 222 221 223 225 229 236 243 245 249 254 256 264 261 265 261 264 272 275 277 284 289 281 274 278 278 275 276 274 270 271 270 266 265 265
178 103 61 56 91 101 4 92 253 179 233 221 213 216 223 222 220 221 225 231 236 240 246 250 248 253 256 260 271 274 272 279 286 280 280 291 297 290 282 283 280 279 275 274 271 267 264 263 263
128 78 48 57 87 55 223 140 276 192 210 158 198 208 216 215 217 222 223 228 224 226 227 227 234 242 250 255 271 278 284 289 290 293 288 288 288 287 283 280 281 282 285 282 282 278 270 265 263
72 57 5 5 12 209 236 86 243 289 217 175 173 193 206 207 208 215 217 215 212 209 213 215 216 228 237 254 263 285 299 297 295 303 299 297 297 292 286 286 283 283 285 286 286 281 277 275 270
69 134 143 196 232 268 313 244 249 279 213 158 182 183 186 191 192 201 199 197 200 208 217 218 227 233 245 256 259 286 299 296 297 297 300 297 295 299 297 298 295 292 292 291 289 288 286 278 274
177 70 148 104 27 31 291 296 311 18 131 147 165 175 180 183 190 194 188 195 202 207 217 221 230 229 238 241 258 269 284 286 292 294 293 291 289 296 293 292 291 294 294 292 290 286 287 285 273
119 148 77 17 136 276 304 283 243 154 223 164 163 182 189 188 188 189 190 197 199 203 210 214 219 225 241 253 271 279 283 287 291 290 290 289 288 285 286 286 284 288 290 289 292 288 281 280 276
90 85 55 109 109 160 247 273 216 213 196 191 192 195 193 189 189 190 193 194 198 204 204 206 222 239 252 259 270 286 297 302 296 285 280 285 287 287 288 289 288 286 283 282 282 284 281 278 273
121 133 131 122 222 123 152 271 281 256 218 204 206 203 199 194 193 195 198 201 209 210 214 220 226 235 246 261 280 295 296 299 299 294 287 285 283 282 287 294 293 287 282 276 272 271 272 276 275
Height
1500 1499 1498 1499 1510 1511 1519 1512 1502 1503 1504 1505 1504 1506 1511 1514 1515 1527 1521 1524 1527 1530 1532 1534 1536 1538 1541 1543 1547 1550 1553 1555 1559 1562 1565 1568 1570 1570 1572 1573 1574 1574 1575 1576 1578 1578 1579 1580 1579
1501 1500 1500 1499 1519 1530 1524 1509 1509 1504 1505 1507 1508 1511 1512 1518 1518 1520 1524 1526 1531 1533 1535 1537 1539 1541 1545 1547 1550 1553 1557 1560 1563 1565 1568 1571 1574 1574 1575 1576 1577 1577 1578 1579 1581 1581 1582 1583 1583
1501 1500 1502 1507 1523 1529 1526 1511 1510 1508 1507 1507 1510 1513 1515 1521 1522 1523 1526 1529 1533 1536 1539 1541 1542 1545 1547 1549 1553 1557 1560 1564 1567 1570 1571 1574 1577 1578 1579 1579 1580 1581 1580 1582 1584 1584 1584 1585 1587
1502 1504 1506 1517 1520 1514 1513 1511 1509 1509 1510 1509 1511 1516 1521 1524 1525 1527 1529 1533 1536 1539 1542 1544 1546 1548 1551 1554 1557 1560 1563 1567 1570 1573 1575 1577 1580 1581 1582 1583 1583 1583 1583 1584 1586 1588 1588 1588 1590
1505 1504 1514 1522 1520 1512 1507 1508 1510 1512 1513 1514 1513 1523 1525 1528 1528 1530 1533 1537 1539 1542 1545 1547 1549 1552 1554 1557 1560 1564 1567 1570 1573 1576 1578 1580 1582 1584 1584 1585 1586 1585 1585 1587 1588 1590 1591 1591 1593
1505 1506 1525 1530 1519 1508 1505 1507 1511 1515 1517 1519 1520 1523 1529 1529 1531 1533 1536 1539 1543 1545 1548 1551 1553 1556 1559 1562 1564 1567 1570 1573 1575 1578 1580 1582 1584 1585 1586 1587 1588 1588 1588 1589 1590 1591 1593 1593 1594
1506 1513 1522 1523 1519 1512 1505 1508 1512 1516 1519 1520 1521 1526 1531 1531 1535 1536 1539 1542 1545 1548 1551 1554 1557 1558 1562 1566 1567 1571 1574 1577 1578 1580 1581 1584 1586 1587 1587 1588 1590 1590 1590 1591 1592 1593 1595 1596 1596
1508 1510 1517 1518 1518 1513 1503 1506 1511 1514 1520 1521 1522 1526 1530 1531 1535 1539 1543 1546 1549 1551 1555 1559 1561 1563 1565 1568 1572 1575 1578 1579 1581 1583 1585 1586 1587 1588 1589 1590 1591 1592 1592 1593 1593 1595 1596 1597 1598
1511 1522 1529 1518 1514 1509 1504 1506 1512 1514 1518 1521 1522 1522 1525 1530 1535 1540 1544 1548 1551 1554 1557 1561 1562 1565 1568 1569 1573 1577 1580 1581 1582 1585 1587 1588 1589 1590 1591 1592 1592 1593 1593 1594 1595 1595 1597 1598 1599
1513 1525 1517 1509 1505 1505 1504 1503 1509 1515 1517 1521 1522 1525 1527 1531 1535 1539 1543 1547 1552 1555 1558 1562 1564 1565 1568 1571 1573 1576 1579 1581 1583 1585 1587 1588 1590 1591 1592 1593 1593 1593 1594 1594 1595 1596 1597 1598 1599
1514 1518 1507 1501 1501 1500 1506 1507 1509 1513 1520 1518 1518 1524 1527 1531 1536 1540 1544 1548 1551 1556 1559 1562 1564 1568 1570 1572 1575 1577 1579 1580 1583 1586 1587 1589 1591 1591 1593 1593 1594 1594 1594 1595 1595 1596 1597 1598 1599
1514 1507 1506 1502 1504 1503 1504 1506 1508 1509 1513 1514 1519 1524 1529 1533 1537 1541 1545 1549 1552 1556 1560 1562 1566 1568 1572 1575 1577 1579 1581 1583 1585 1586 1587 1588 1590 1591 1593 1594 1594 1594 1594 1595 1595 1596 1597 1597 1598
1511 1507 1504 1501 1502 1499 1503 1504 1507 1510 1512 1516 1522 1527 1532 1536 1539 1543 1547 1551 1554 1557 1560 1564 1566 1570 1573 1575 1577 1579 1581 1584 1586 1587 1588 1589 1590 1591 1593 1593 1594 1594 1595 1595 1595 1596 1596 1597 1597
1507 1505 1502 1497 1499 1499 1504 1508 1510 1514 1514 1518 1524 1530 1534 1537 1540 1544 1547 1550 1554 1558 1561 1564 1567 1570 1573 1575 1578 1580 1582 1584 1585 1587 1589 1589 1590 1591 1592 1593 1594 1594 1594 1594 1594 1595 1595 1596 1596
1505 1505 1498 1496 1496 1502 1504 1514 1511 1512 1517 1522 1528 1531 1534 1536 1540 1543 1547 1550 1554 1557 1561 1564 1567 1570 1573 1575 1578 1579 1581 1583 1585 1586 1588 1589 1590 1591 1593 1592 1593 1594 1594 1593 1593 1594 1594 1594 1595
1508 1510 1516 1499 1498 1503 1504 1521 1513 1514 1516 1523 1529 1531 1533 1537 1540 1545 1548 1552 1554 1557 1560 1563 1566 1569 1572 1574 1577 1579 1581 1583 1584 1585 1587 1589 1589 1590 1591 1591 1592 1593 1592 1593 1592 1593 1593 1593 1594
1519 1524 1519 1509 1499 1501 1506 1515 1515 1518 1520 1524 1527 1529 1534 1539 1541 1544 1548 1552 1555 1557 1560 1563 1565 1567 1570 1573 1576 1578 1580 1581 1582 1584 1585 1586 1587 1588 1589 1589 1590 1591 1591 1590 1591 1590 1590 1591 1592
1523 1522 1517 1515 1502 1502 1510 1513 1516 1519 1521 1523 1527 1531 1535 1537 1537 1543 1547 1551 1555 1557 1560 1563 1565 1568 1570 1573 1576 1577 1578 1578 1579 1581 1582 1584 1585 1586 1587 1587 1588 1588 1588 1588 1588 1587 1588 1588 1590
1510 1514 1518 1504 1501 1510 1514 1516 1520 1521 1524 1526 1528 1530 1533 1532 1538 1543 1547 1550 1553 1556 1559 1561 1564 1567 1569 1572 1574 1575 1575 1576 1578 1579 1581 1582 1584 1585 1585 1584 1584 1584 1584 1584 1584 1584 1584 1585 1586
1512 1516 1515 1507 1503 1509 1519 1523 1521 1522 1521 1521 1524 1527 1530 1534 1537 1540 1543 1547 1550 1553 1556 1559 1563 1565 1568 1570 1572 1572 1573 1574 1576 1577 1578 1578 1579 1580 1580 1580 1580 1580 1580 1580 1580 1580 1580 1581 1582
1509 1515 1511 1511 1509 1512 1519 1531 1525 1523 1523 1525 1525 1526 1531 1532 1534 1537 1540 1543 1548 1551 1554 1557 1561 1563 1565 1567 1569 1570 1571 1571 1571 1573 1573 1572 1573 1574 1574 1574 1574 1575 1575 1575 1575 1575 1576 1575 1577
1514 1501 1502 1509 1520 1541 1521 1558 1531 1523 1522 1521 1522 1524 1526 1530 1534 1537 1540 1543 1545 1548 1553 1557 1559 1561 1563 1564 1566 1566 1567 1566 1566 1567 1568 1566 1566 1567 1568 1568 1568 1568 1568 1568 1569 1570 1570 1571 1570
1505 1500 1505 1509 1524 1529 1531 1549 1532 1524 1524 1520 1517 1519 1524 1528 1531 1535 1539 1542 1545 1548 1551 1552 1554 1556 1558 1560 1562 1561 1562 1560 1560 1562 1563 1564 1563 1562 1563 1563 1562 1561 1561 1561 1562 1563 1563 1563 1564
1499 1506 1517 1527 1535 1553 1535 1543 1539 1528 1511 1516 1515 1517 1521 1526 1529 1533 1538 1541 1544 1547 1547 1548 1550 1553 1556 1558 1560 1560 1559 1559 1559 1558 1559 1558 1558 1559 1559 1557 1556 1555 1554 1554 1554 1554 1555 1556 1556
1503 1523 1555 1549 1561 1557 1535 1543 1527 1511 1508 1508 1510 1515 1519 1524 1527 1531 1535 1538 1540 1542 1544 1547 1549 1551 1555 1556 1558 1558 1558 1557 1556 1555 1554 1553 1552 1552 1551 1551 1550 1549 1548 1547 1546 1547 1546 1547 1549
1511 1518 1551 1555 1568 1556 1536 1538 1523 1507 1504 1507 1512 1514 1518 1522 1526 1529 1533 1536 1538 1541 1543 1546 1549 1551 1553 1555 1555 1556 1555 1555 1553 1552 1550 1549 1547 1546 1545 1544 1543 1542 1541 1540 1539 1538 1538 1540 1537
1510 1525 1521 1552 1561 1560 1551 1529 1511 1507 1507 1507 1513 1515 1517 1521 1525 1528 1532 1535 1537 1540 1542 1545 1547 1550 1551 1552 1552 1552 1553 1552 1550 1548 1546 1543 1541 1540 1538 1537 1535 1535 1534 1534 1533 1532 1531 1531 1530
1497 1510 1533 1546 1556 1558 1555 1544 1534 1515 1514 1511 1514 1515 1517 1521 1524 1528 1530 1532 1535 1538 1541 1543 1546 1547 1548 1549 1550 1550 1550 1548 1546 1544 1540 1538 1535 1533 1531 1529 1528 1526 1525 1525 1524 1524 1524 1524 1522
1510 1519 1532 1541 1552 1564 1568 1547 1513 1510 1507 1507 1507 1510 1514 1518 1522 1525 1528 1530 1533 1536 1539 1541 1543 1545 1546 1547 1547 1546 1544 1541 1539 1537 1534 1531 1528 1526 1523 1521 1519 1517 1516 1516 1515 1514 1515 1514 1515
1498 1509 1520 1543 1546 1559 1557 1543 1504 1504 1504 1505 1506 1508 1513 1517 1520 1523 1526 1529 1531 1534 1536 1539 1540 1542 1543 1543 1542 1540 1538 1536 1532 1530 1527 1525 1521 1518 1514 1510 1507 1506 1504 1504 1504 1503 1504 1503 1504